www.pogodaiklimat.ru

Погода и климат >> Архив погоды >> Россия >> Курганская область >> Далматово


ПОГОДА в Далматово

  • Прогноз погоды в Далматово
  • Монитор погоды в Далматово

АРХИВ ПОГОДЫ в Далматово

Время (UTC), дата Ветер
(напр.,м/с)
 
Видим.   Явления Облачность Т
(С)
Тd
(С)
f
(%)
Тe
(С)
Тes
(С)
Комфортность P
(гПа)
Po
(гПа)
Тmin
(С)
Tmax
(С)
R
(мм)
R24
(мм)
S
(см)
09 13.04 СЗ 2 50 км 10/8 600 м
[Sc Ac trans]
+6.6 -2.3 53 +5 +6 1018.8 1006.1
12 13.04 СЗ 1 50 км 10/10 600 м
[Sc]
+5.3 -3.3 54 +5 +5 1019.3 1006.5
15 13.04 штиль 0 20 км 10/10 600 м
[Sc]
+4.6 -2.0 62 +4 +4 1019.2 1006.4 +6.9
18 13.04 штиль 0 20 км 10/10 600 м
[Sc]
+3.4 -1.2 72 +3 +3 1019.5 1006.6
21 13.04 С 2 20 км 10/10 600 м
[Sc]
+3.3 -2.5 66 +1 +1 1019.6 1006.8
00 14.04 СВ 2 4000 м слаб. ливневой снег 10/10 600 м
[Cb cap]
+1.0 -2.7 76 -2 -2 1021.2 1008.2
03 14.04 СВ 3 4000 м слаб. ливневой снег 10/10 600 м
[Cb cap]
-0.9 -5.5 71 -5 -5 1023.2 1010.1 -1.2 0.7 1
06 14.04 СВ 3 50 км {ливн. осадки} 10/10 600 м
[Sc]
+0.6 -9.1 48 -3 -3 1024.4 1011.3 -1.3
09 14.04 СВ 2 50 км 10/0
[Ac trans]
+3.0 -9.2 40 +1 +5 1024.7 1011.8
12 14.04 СВ 2 50 км 3/0
[Ci]
+4.7 -10.8 31 +3 +6 1024.1 1011.2
15 14.04 СВ 1 50 км 3/3 600 м
[Sc]
+0.7 -12.7 36 -0 -0 1024.5 1011.4 +4.8 0.0
18 14.04 штиль 0 20 км ясно -5.1 -11.8 59 -6 -6 1025.4 1012.0
21 14.04 штиль 0 20 км ясно -8.0 -11.7 75 -9 -9 1024.9 1011.4
00 15.04 штиль 0 20 км ясно -9.4 -12.0 81 -10 -10 1024.5 1010.9
03 15.04 С 1 20 км ясно -3.6 -11.0 56 -5 -3 1023.8 1010.6 -9.8
06 15.04 З 3 50 км ясно -0.2 -12.6 39 -4 +4 1022.0 1009.0
09 15.04 З 2 50 км ясно +3.4 -12.4 30 +2 +12 опасность
простуды
1019.4 1006.6
12 15.04 З 4 50 км ясно +5.7 -13.1 24 +3 +5 1016.4 1003.7
15 15.04 штиль 0 50 км ясно +3.3 -12.5 30 +3 +3 1014.1 1001.3 +6.0
18 15.04 штиль 0 50 км ясно -0.5 -10.3 47 -1 -1 1012.9 999.9
21 15.04 З 2 50 км ясно -0.7 -10.3 48 -4 -4 1011.4 998.4
00 16.04 ЮЗ 1 20 км 6/6 600 м
[Sc]
-1.4 -8.2 60 -3 -3 1009.8 996.8
03 16.04 З 3 50 км 10/10 600 м
[Sc]
+1.3 -5.2 62 -3 -3 1007.9 995.1 -2.3
06 16.04 З 6
{12}
50 км 10/10 600 м
[Sc]
+4.1 -1.5 67 -1 -1 1006.3 993.7
09 16.04 З 5
{12}
50 км 10/10 600 м
[Sc]
+5.5 -0.7 64 +1 +1 1005.2 992.6
12 16.04 СЗ 1
{11}
4000 м слаб. ливневой снег 10/10 600 м
[Cb cap]
+0.4 -0.4 94 -2 -2 1006.4 993.6
15 16.04 штиль 0 4000 м слаб. ливневой снег 10/10 600 м
[Cb cap]
-0.0 -0.5 96 -1 -1 1006.7 993.8 +6.0 3
18 16.04 С 2 4000 м слаб. ливневой снег [диам. отлож. мокр. снега 20 мм] 10/10 600 м
[Cb cap]
-3.1 -3.6 96 -7 -7 1009.2 996.2
21 16.04 С 3 4000 м слаб. ливневой снег [диам. отлож. мокр. снега 0 мм] 10/10 600 м
[Cb cap]
-4.7 -5.8 92 -10 -10 1012.0 998.8
00 17.04 С 3
{11}
20 км {ливн. осадки, метель} 8/8 600 м
[Sc]
-7.3 -13.4 62 -13 -13 1015.7 1002.4
03 17.04 С 4
{11}
50 км позёмок 8/8 600 м
[Sc]
-7.8 -13.7 63 -14 -14 1018.0 1004.6 -8.7 4 5
06 17.04 СЗ 4-13
{13}
4000 м слаб. ливневой снег {метель} 10/10 600 м
[Cb cap]
-7.7 -12.2 70 -14 -14 1020.3 1006.9
09 17.04 С 4-10
{13}
20 км позёмок {ливн. осадки} 10/10 600 м
[Cb calv]
-5.9 -12.3 61 -12 -12 1022.4 1009.0
12 17.04 С 3
{13}
20 км {ливн. осадки, метель} 8/8 600 м
[Cu med, cong]
-2.8 -12.0 49 -7 -7 1024.0 1010.7
15 17.04 С 1 20 км 1/1 600 м
[Cu hum]
-4.1 -13.7 47 -6 -6 1025.3 1012.0 -2.4 0.8
18 17.04 штиль 0 20 км ясно -11.7 -14.5 80 -12 -12 1027.5 1013.8
21 17.04 штиль 0 10 км ясно -14.4 -15.9 88 -14 -14 1028.7 1014.8
00 18.04 штиль 0 10 км ясно -13.6 -14.6 92 -14 -14 1029.6 1015.8
03 18.04 З 2 20 км 1/0
[Ci fib]
-7.1 -12.3 66 -11 -9 1029.5 1016.0 -14.8 3
06 18.04 З 3 50 км 4/0
[Ci fib]
-0.6 -10.0 49 -5 +3 1029.1 1015.9
09 18.04 ЮЗ 4 50 км 1/0
[Ci fib]
+2.6 -10.4 38 -1 +6 1028.9 1015.9
12 18.04 СЗ 3 50 км ясно +4.5 -12.5 28 +2 +5 1027.9 1015.0
15 18.04 штиль 0 50 км ясно +0.7 -13.1 35 +1 +1 1027.5 1014.4 +4.6
18 18.04 штиль 0 20 км ясно -6.6 -9.2 82 -7 -7 1028.0 1014.5
21 18.04 штиль 0 10 км ясно -8.4 -10.0 88 -9 -9 1027.4 1013.9
00 19.04 штиль 0 10 км ясно -9.6 -10.8 91 -10 -10 1026.4 1012.8
03 19.04 штиль 0 10 км ясно -2.6 -6.9 72 -3 0 1025.4 1012.2 -10.2
06 19.04 СЗ 1 50 км ясно +5.6 -11.5 28 +5 +17 опасность
простуды
1023.6 1010.8
09 19.04 З 2 50 км ясно +7.0 -11.1 26 +6 +17 опасность
простуды
1021.8 1009.1
12 19.04 СЗ 2 50 км ясно +8.0 -11.1 24 +7 +11 1020.4 1007.7
15 19.04 штиль 0 50 км ясно +4.5 -10.0 34 +4 +4 1019.6 1006.8 +8.6
18 19.04 штиль 0 20 км ясно -3.7 -7.4 75 -5 -5 1019.9 1006.7
21 19.04 С 2 20 км 10/10 600 м
[Sc]
+1.5 -4.5 64 -1 -1 1019.9 1006.9
00 20.04 штиль 0 10 км ясно -5.2 -7.0 87 -6 -6 1020.2 1006.9
03 20.04 штиль 0 20 км 10/10 600 м
[Sc]
+0.2 -3.8 74 -1 -1 1020.2 1007.2 -6.2

 

Местоположение метеостанции Далматово (Курганская область, Россия): широта 56.27 долгота 62.93 высота над уровнем моря 103 м.

В архиве по умолчанию представлена погода в Далматово за последнюю неделю. Архивные данные за месяц целиком и за предыдущие месяцы, начиная с января 2011 года, Вы можете получить, выбрав интересующий диапазон дат из раскрывающегося списка и нажав кнопку "Ввод!".


*Определитесь, кто Вы:
робот инопланетянин человек

Внимание! Время в таблицах - всемирное. Для получения местного времени необходимо прибавить поправку, которая равна 5 ч.

Смотрите также архив погоды в соседних городах и на ближайших метеорологических станциях:

Погода в Шадринске (Курганская область, Россия) (50 км)
Погода в Камышлове (Свердловская область, Россия) (66 км)
Погода в Каменск-Уральском (Свердловская область, Россия) (68 км)
Погода в Бутке (Свердловская область, Россия) (72 км)
Погода в Бродокалмаке (Челябинская область, Россия) (94 км)
Погода в Шатрово (Курганская область, Россия) (109 км)
Погода в Шумихе (Курганская область, Россия) (118 км)
Погода в Верхнем Дуброво (Свердловская область, Россия) (125 км)
Погода в Сысерти (Свердловская область, Россия) (132 км)
Погода в Артемовском (Свердловская область, Россия) (137 км)

Пояснения к столбцам:

Ветер - указаны скорость ветра в м/с - средняя за 10 мин, порывы в срок и между сроками (в фигурных скобках) и направление, откуда дует ветер: С - северный, СВ - северо-восточный, В - восточный, ЮВ - юго-восточный, Ю - южный, ЮЗ - юго-западный, З - западный, СЗ - северо-западный.
Видимость - горизонтальная дальность видимости в метрах или километрах. При видимости от 1 до 10 км при отсутствии осадков обычно наблюдается дымка, при ухудшении видимости до 1 км и менее - туман. В сухую погоду видимость может ухудшаться дымом, пылью или мглою.
Явления - указаны атмосферные явления, наблюдавшиеся в срок или в последний час перед сроком; фигурными скобками обозначены явления, наблюдавшиеся между сроками (за 1-3 часа до срока); квадратными скобками обозначены град или гололедные отложения с указанием их диаметра в мм.
Облачность - указаны через наклонную черту общая и нижняя облачность в баллах и высота нижней границы облаков в метрах; квадратными скобками обозначены формы облаков: Ci - перистые, Cs - перисто-слоистые, Cc - перисто-кучевые, Ac - высококучевые, As - высокослоистые, Sc - слоисто-кучевые, Ns - слоисто-дождевые, Cu - кучевые, Cb - кучево-дождевые. Подробнее классификацию облаков см. в Атласе облаков (PDF).
T - Температура воздуха - температура, измеренная на высоте 2 м над землей.
Td - Температура точки росы - температура, при понижении до которой содержащийся в воздухе водяной пар достигнет насыщения.
f - Относительная влажность воздуха - влажноcть воздуха, измеренная на высоте 2 м над землей.
Te - Эффективная температура - температура, которую ощущает одетый по сезону человек в тени. Характеристика душности погоды. При расчете учитывается влияние влажности воздуха и скорости ветра на теплоощущения человека.
Tes - Эффективная температура на солнце - температура, которую ощущает человек, с поправкой на солнечный нагрев. Характеристика знойности погоды. Зависит от высоты солнца над горизонтом, облачности и скорости ветра. Ночью, в пасмурную погоду, а также при ветре 12 м/с и более поправка равна нулю.
P - Атмосферное давление - приведенное к уровню моря атмосферное давление.
Po - Атмосферное давление - измеренное на уровне метеостанции атмосферное давление.
Tmin - Минимальная температура - минимум температуры воздуха на высоте 2 м над землей.
Tmax - Максимальная температура - максимум температуры воздуха на высоте 2 м над землей.
R - Количество осадков - Количество выпавших осадков за период времени, мм. При наведении курсора мыши на число - период времени, за который выпало указанное количество осадков.
R24 - Количество осадков - Количество выпавших осадков за 24 часа, мм.
S - Снежный покров - Высота снежного покрова, см. При наведении курсора мыши на число - состояние снежного покрова и степень покрытия местности в баллах.